Retour au catalogue

FENGYUN 1C DEB

ActifPO
NORAD 29860·DEBRIS·🇨🇳 China

Lancé May 10, 1999 depuis Taiyuan Satellite Launch Center

Loading…

Prochains Passages (prochaines 24 heures)

TLE

FraisSource: Space-Track

Époque: Sep 13, 2026, 14:23 UTC

1 29860U 99025FE  26256.59932750  .00001669  00000-0  14083-2 0  9991
2 29860  98.6004 270.2600 0217160 322.8530 160.3867 13.78816684979256

Suivez FENGYUN 1C DEB en temps réel avec AllMySat

Download on the App Store